STARLINK-11293, 61249

Orbit data source: Space-Track

STARLINK-11293, 61249 is a payload satellite owned by SpaceX/Seattle (US) in LEO that was launched on Wed, 25 Sep 2024 UTC via an FALCON 9 launch vehicle from the Air Force Western Test Range (AFWTR). Payload-class satellites include a variety of spacecraft equipped with specific instruments for various scientific and technological missions. These include communications satellites like Starlink; space stations such as the ISS; scientific satellites like the Hubble; Earth observation satellites from companies like Planet Labs, Umbra, and HawkEye 360; GPS; miniature CubeSats for education and research; and military/defense satellites.

Loading next visibility...
Identifier
61249, 2024-175G
Orbit
LEO
Country
Flag of USUS
Related business
Manufacturer
SpaceX/Seattle
Mission
Operational Commercial Communications
Bus & Motor
STARLINK V2MD, Unknown motor
Mass
960 kg wet, ~910 kg dry
Launch date (UTC)
2024-09-25 (1 year ago)
Launch vehicle
FALCON 9
Launch site
Air Force Western Test Range (AFWTR)
Object type
Payload
Rocket body
Debris
Shape & HBR
Box + 2 Pan, 18.1 m
Radar Cross Section
36.964 m², Large (>1 m²)

Expand to show TLE details & history
Last TLE update: 23 hours ago

TLE from 23 hours ago
0 STARLINK-11293
1 61249U 24175G   25300.44804008  .00001074  00000-0  13724-4 0  9992
2 61249  53.1588 352.7852 0001238  85.7658 274.3502 15.69708340 62441
Epoch: 2025-10-27T10:45Z
TLE epoch observation values (Epoch: 2025-10-27T10:45:10.662Z)
Latitude
0.00001°
Longitude
155.44104°
Altitude
360.583 km
Speed
7.694 km/s
True Right ascension
23h 31m 08s
True Declination
0° 00' 00"
Sunlit
Object was in full shadow at epoch
Visualization orbit readout
Latitude
Unknown
Longitude
Unknown
Altitude
Unknown
Speed
Unknown
Apparent Right ascension
Unknown
Apparent Declination
Unknown
Sunlit
N/A
Visualization observer readout
Local Sidereal Time
05:00:10
Azimuth
Unknown
Elevation
Unknown
Doppler factor
Unknown
Orbital elements
Apogee altitude
360.827 km
Perigee altitude
359.158 km
Semi-major axis
6,738.129 km
Eccentricity
0.00012
Inclination
53.1588°
RAAN
352.7852°
Arg. of periapsis
85.7658°
True anomaly
274.33605°
Mean anomaly
274.3502°
Eccentric anomaly
274.34313°
Mean motion
3.92405 °/min
Orbital period
91.74 mins
BSTAR
0.000013724
Loading maneuver chart data...
Computing Atmospheric mass density...
Loading historical data...
Loading historical data...
Loading historical data...
Loading historical data...
Loading historical data...
Loading historical data...
Loading historical data...

Documentation

Showing up to 5 results
|